Soldotna, AK

3:36 PM AKDT on April 24, 2018 (GMT -0800)
Soldotna

Weather History for PASX - July, 2012

Change the Weather History Date:

Wednesday, July 4, 2012

  Actual Average Record
Temperature  
Mean Temperature 52 °F -  
Max Temperature 59 °F 59 °F 77 °F (1999)
Min Temperature 46 °F 46 °F 37 °F (1982)
Degree Days  
Heating Degree Days 12    
Growing Degree Days 2 (Base 50)    
Moisture  
Dew Point 43 °F    
Average Humidity 76    
Maximum Humidity 93    
Minimum Humidity 51    
Precipitation  
Precipitation 0.00 in - - ()
Sea Level Pressure  
Sea Level Pressure 29.79 in    
Wind  
Wind Speed 3 mph (ENE)    
Max Wind Speed 16 mph    
Max Gust Speed 22 mph    
Visibility 10 miles    
Events      
Averages and records for this station are not official NWS values.
T = Trace of Precipitation, MM = Missing Value Source: NWS Daily Summary

Daily Weather History Graph

Daily Weather History Graph

Search for Another Location

Airport or City:

Astronomy

Jul. 04, 2012 Rise Set
Actual Time 4:45 AM AKDT 11:30 PM AKDT
Civil Twilight 3:01 AM AKDT 1:12 AM AKDT
Nautical Twilight Sun does not set Sun does not set
Astronomical Twilight Sun does not set Sun does not set
Moon 11:24 PM AKDT (7/4) 6:37 AM AKDT (7/4)
Length of Visible Light 22h 10m
Length of Day
18h 45m
Full, 98% of the Moon is Illuminated
Jul 4
Full
Jul 10
Last Quarter
Jul 18
New
Jul 26
First Quarter
Aug 1
Full

Hourly Weather History & Observations

Time (AKDT) Temp. Windchill Dew Point Humidity Pressure Visibility Wind Dir Wind Speed Gust Speed Precip Events Conditions
12:16 AM 46.4 °F - 44.6 °F 93% 29.80 in 9.0 mi Calm Calm - N/A   Overcast
12:36 AM 46.4 °F - 44.6 °F 93% 29.81 in 8.0 mi Calm Calm - N/A   Overcast
12:56 AM 46.4 °F - 44.6 °F 93% 29.81 in 10.0 mi Calm Calm - N/A   Overcast
1:16 AM 46.4 °F - 44.6 °F 93% 29.81 in 10.0 mi Calm Calm - N/A   Overcast
1:36 AM 46.4 °F - 44.6 °F 93% 29.81 in 9.0 mi Calm Calm - N/A   Overcast
1:56 AM 46.4 °F - 44.6 °F 93% 29.81 in 9.0 mi Calm Calm - N/A   Overcast
2:16 AM 46.4 °F 45.2 °F 44.6 °F 93% 29.81 in 9.0 mi ENE 3.5 mph - N/A   Overcast
2:36 AM 46.4 °F - 44.6 °F 93% 29.81 in 10.0 mi Calm Calm - N/A   Overcast
2:56 AM 46.4 °F - 44.6 °F 93% 29.81 in 10.0 mi Calm Calm - N/A   Overcast
3:16 AM 46.4 °F - 44.6 °F 93% 29.81 in 10.0 mi Calm Calm - N/A   Overcast
3:36 AM 46.4 °F - 44.6 °F 93% 29.81 in 10.0 mi Calm Calm - N/A   Overcast
3:56 AM 46.4 °F - 44.6 °F 93% 29.81 in 10.0 mi Calm Calm - N/A   Overcast
4:16 AM 46.4 °F - 44.6 °F 93% 29.81 in 10.0 mi Calm Calm - N/A   Overcast
4:36 AM 46.4 °F - 44.6 °F 93% 29.81 in 10.0 mi Calm Calm - N/A   Overcast
4:56 AM 46.4 °F - 42.8 °F 87% 29.81 in 10.0 mi Calm Calm - N/A   Overcast
5:16 AM 46.4 °F - 42.8 °F 87% 29.81 in 10.0 mi Calm Calm - N/A   Overcast
5:36 AM 46.4 °F - 42.8 °F 87% 29.81 in 10.0 mi Calm Calm - N/A   Overcast
5:56 AM 46.4 °F - 42.8 °F 87% 29.81 in 10.0 mi Calm Calm - N/A   Overcast
6:16 AM 46.4 °F - 42.8 °F 87% 29.81 in 10.0 mi Calm Calm - N/A   Overcast
6:36 AM 46.4 °F 45.2 °F 44.6 °F 93% 29.81 in 10.0 mi North 3.5 mph - N/A   Overcast
6:56 AM 46.4 °F 44.3 °F 44.6 °F 93% 29.81 in 10.0 mi NNE 4.6 mph - N/A   Overcast
7:16 AM 46.4 °F - 44.6 °F 93% 29.81 in 10.0 mi Calm Calm - N/A   Overcast
7:36 AM 46.4 °F - 44.6 °F 93% 29.81 in 10.0 mi Calm Calm - N/A   Overcast
7:56 AM 46.4 °F 45.2 °F 44.6 °F 93% 29.81 in 10.0 mi NE 3.5 mph - N/A   Overcast
8:16 AM 48.2 °F - 44.6 °F 87% 29.82 in 10.0 mi NE 4.6 mph - N/A   Overcast
8:36 AM 48.2 °F - 44.6 °F 87% 29.81 in 10.0 mi NE 3.5 mph - N/A   Overcast
8:56 AM 48.2 °F - 44.6 °F 87% 29.81 in 10.0 mi NE 4.6 mph - N/A   Overcast
9:16 AM 48.2 °F - 44.6 °F 87% 29.81 in 10.0 mi NNE 3.5 mph - N/A   Overcast
9:36 AM 48.2 °F - 44.6 °F 87% 29.81 in 10.0 mi NNE 4.6 mph - N/A   Overcast
9:56 AM 48.2 °F - 44.6 °F 87% 29.81 in 10.0 mi NNE 6.9 mph - N/A   Overcast
10:16 AM 50.0 °F - 44.6 °F 82% 29.81 in 10.0 mi NNE 5.8 mph - N/A   Mostly Cloudy
10:36 AM 50.0 °F - 44.6 °F 82% 29.81 in 10.0 mi NNE 4.6 mph - N/A   Overcast
10:56 AM 51.8 °F - 44.6 °F 76% 29.81 in 10.0 mi North 4.6 mph - N/A   Overcast
11:16 AM 51.8 °F - 46.4 °F 82% 29.81 in 10.0 mi NNW 4.6 mph - N/A   Mostly Cloudy
11:36 AM 51.8 °F - 46.4 °F 82% 29.81 in 10.0 mi North 4.6 mph - N/A   Mostly Cloudy
11:56 AM 53.6 °F - 46.4 °F 77% 29.80 in 10.0 mi NE 5.8 mph - N/A   Mostly Cloudy
12:16 PM 53.6 °F - 44.6 °F 72% 29.80 in 10.0 mi NNE 4.6 mph - N/A   Mostly Cloudy
12:36 PM 53.6 °F - 44.6 °F 72% 29.80 in 10.0 mi NNE 6.9 mph - N/A   Mostly Cloudy
12:56 PM 55.4 °F - 44.6 °F 67% 29.79 in 10.0 mi North 3.5 mph - N/A   Mostly Cloudy
1:16 PM 55.4 °F - 44.6 °F 67% 29.79 in 10.0 mi NNE 4.6 mph - N/A   Mostly Cloudy
1:36 PM 55.4 °F - 46.4 °F 72% 29.78 in 10.0 mi NNE 8.1 mph - N/A   Mostly Cloudy
1:56 PM 55.4 °F - 46.4 °F 72% 29.78 in 10.0 mi North 4.6 mph - N/A   Overcast
2:16 PM 57.2 °F - 41.0 °F 55% 29.77 in 10.0 mi NE 6.9 mph - N/A   Overcast
2:36 PM 57.2 °F - 41.0 °F 55% 29.77 in 10.0 mi ENE 9.2 mph - N/A   Overcast
2:56 PM 59.0 °F - 42.8 °F 55% 29.76 in 10.0 mi ESE 10.4 mph - N/A   Overcast
3:16 PM 59.0 °F - 42.8 °F 55% 29.76 in 10.0 mi ESE 13.8 mph - N/A   Mostly Cloudy
3:36 PM 59.0 °F - 41.0 °F 51% 29.76 in 10.0 mi ESE 10.4 mph 16.1 mph N/A   Mostly Cloudy
3:56 PM 59.0 °F - 41.0 °F 51% 29.76 in 10.0 mi East 16.1 mph 21.9 mph N/A   Overcast
4:16 PM 57.2 °F - 41.0 °F 55% 29.76 in 10.0 mi ESE 11.5 mph - N/A   Overcast
4:36 PM 55.4 °F - 44.6 °F 67% 29.76 in 10.0 mi ESE 9.2 mph - N/A   Overcast
4:56 PM 55.4 °F - 44.6 °F 67% 29.76 in 10.0 mi ESE 6.9 mph - N/A   Overcast
5:16 PM 55.4 °F - 44.6 °F 67% 29.77 in 9.0 mi ESE 5.8 mph - N/A   Overcast
5:36 PM 53.6 °F - 44.6 °F 72% 29.76 in 10.0 mi Calm Calm - N/A   Overcast
5:56 PM 55.4 °F - 46.4 °F 72% 29.76 in 10.0 mi East 6.9 mph - N/A   Mostly Cloudy
6:16 PM 55.4 °F - 42.8 °F 63% 29.76 in 10.0 mi East 10.4 mph - N/A   Mostly Cloudy
6:36 PM 55.4 °F - 41.0 °F 58% 29.75 in 10.0 mi East 9.2 mph - N/A   Overcast
6:56 PM 53.6 °F - 41.0 °F 62% 29.75 in 10.0 mi East 8.1 mph - N/A   Mostly Cloudy
7:16 PM 53.6 °F - 41.0 °F 62% 29.75 in 10.0 mi East 10.4 mph - N/A   Overcast
7:36 PM 53.6 °F - 41.0 °F 62% 29.76 in 10.0 mi ESE 8.1 mph - N/A   Overcast
7:56 PM 53.6 °F - 41.0 °F 62% 29.76 in 10.0 mi ESE 8.1 mph - N/A   Overcast
8:36 PM 53.6 °F - 41.0 °F 62% 29.76 in 10.0 mi East 10.4 mph - N/A   Overcast
8:56 PM 53.6 °F - 39.2 °F 58% 29.76 in 10.0 mi East 9.2 mph - N/A   Overcast
9:16 PM 53.6 °F - 39.2 °F 58% 29.76 in 10.0 mi East 10.4 mph - N/A   Overcast
9:36 PM 53.6 °F - 39.2 °F 58% 29.76 in 10.0 mi East 10.4 mph - N/A   Overcast
9:56 PM 53.6 °F - 39.2 °F 58% 29.76 in 10.0 mi East 6.9 mph - N/A   Overcast
10:16 PM 53.6 °F - 39.2 °F 58% 29.76 in 10.0 mi East 9.2 mph - N/A   Overcast
10:36 PM 51.8 °F - 39.2 °F 62% 29.76 in 10.0 mi East 6.9 mph - N/A   Overcast
10:56 PM 51.8 °F - 39.2 °F 62% 29.76 in 10.0 mi East 5.8 mph - N/A   Overcast
11:16 PM 51.8 °F - 39.2 °F 62% 29.76 in 10.0 mi East 8.1 mph - N/A   Overcast
11:36 PM 51.8 °F - 39.2 °F 62% 29.76 in 10.0 mi East 10.4 mph - N/A   Overcast
11:56 PM 51.8 °F - 39.2 °F 62% 29.77 in 10.0 mi East 8.1 mph - N/A   Overcast